Wetbulb
39.30 34.68 32.94 35.63 36.97 35.86 34.03 32.55 30.94 35.05 39.63 35.80 36.79 35.94 39.09 41.95 40.18 37.46 37.70 37.16 36.88 36.68 38.27 38.86 39.10 39.14 39.26 39.65 40.15 40.58 40.43 40.97 42.90 43.49 46.72 47.49 47.85 48.77 49.17 50.24 51.47 52.80 53.47 53.91
35.66 32.30 38.93 39.34 38.35 36.76 35.63 33.01 32.72 36.16 38.79 37.27 35.84 36.47 37.51 36.62 36.58 37.38 36.98 36.19 36.11 36.32 36.50 37.14 37.21 37.25 37.06 36.80 37.68 38.78 39.78 40.00 40.51 41.38 41.37 43.77 44.94 44.57 44.14 44.34 44.28 45.14 47.80 49.97
35.70 38.34 40.70 39.15 37.04 36.59 34.56 32.99 32.69 34.23 36.16 35.71 32.98 32.96 34.33 35.45 36.97 37.11 36.50 36.28 36.05 35.16 34.87 35.75 35.94 35.38 36.13 35.50 35.62 36.85 37.82 39.04 39.34 40.14 40.61 40.75 40.53 40.61 40.04 40.72 40.99 41.68 42.05 43.54
36.69 40.72 39.74 37.38 36.80 37.59 32.66 38.09 36.59 35.06 30.59 27.55 33.48 25.33 31.42 32.65 32.88 33.89 33.71 33.09 33.62 34.11 34.92 35.28 35.26 34.72 34.83 34.21 35.34 36.20 36.78 37.13 38.30 38.61 37.77 36.62 36.17 35.57 36.54 37.51 38.38 39.11 39.74 40.35
37.20 36.45 35.86 36.36 37.85 38.44 35.62 36.49 34.33 32.58 29.87 28.29 28.86 25.91 29.18 32.66 30.40 31.40 32.40 33.46 33.44 33.73 33.94 33.56 33.96 34.93 34.82 34.24 33.80 33.86 35.24 35.84 36.10 36.52 36.53 35.76 34.98 35.61 35.55 36.10 35.83 36.67 37.60 38.22
36.82 37.85 36.78 37.43 37.06 37.46 37.68 34.24 33.68 30.65 28.77 24.08 29.58 28.19 28.63 29.94 32.07 31.57 32.93 33.25 34.28 33.89 33.61 33.75 34.06 33.96 33.27 33.15 33.41 33.77 33.66 33.49 34.80 34.86 34.72 34.21 32.94 33.06 32.92 33.36 33.44 34.01 34.71 35.23
34.43 35.35 36.50 37.59 34.13 34.84 33.64 30.65 25.27 23.50 22.53 24.01 30.76 26.82 29.89 32.63 34.24 33.80 32.73 32.41 32.48 32.16 31.59 31.45 31.46 31.16 31.42 31.42 31.72 33.69 32.27 31.55 31.96 32.56 33.05 33.13 32.61 31.80 31.57 31.39 31.53 31.22 31.64 31.77
30.33 28.59 34.89 37.41 36.20 33.73 31.76 32.87 27.17 18.04 21.10 24.66 28.49 25.59 29.95 33.16 34.61 34.41 33.51 31.87 31.32 30.41 30.77 30.66 31.17 30.69 30.48 31.10 30.43 30.68 31.06 30.36 30.64 30.91 31.44 31.71 32.44 31.09 30.33 29.55 29.44 30.02 30.07 30.38
30.86 30.08 35.79 36.18 36.94 37.41 33.14 30.00 34.68 27.17 14.87 19.88 26.22 28.01 32.45 32.66 31.07 30.95 30.58 30.42 29.11 29.00 28.92 29.18 29.35 29.52 29.27 29.30 29.93 29.92 30.60 30.27 30.32 30.32 30.46 30.51 30.82 31.25 30.13 29.61 28.54 28.15 28.22 29.89
34.93 28.84 34.47 35.91 36.38 35.09 34.30 35.82 28.62 27.01 15.68 13.14 22.74 24.75 26.60 28.79 29.07 30.05 29.18 29.01 29.23 29.02 28.46 28.25 28.63 28.64 28.60 28.62 28.69 29.05 29.40 29.64 29.39 29.19 28.98 29.64 29.47 30.24 30.20 29.23 28.28 27.91 28.15 28.57
36.06 32.53 30.82 33.95 32.27 32.29 31.80 29.24 31.58 31.65 27.57 18.62 15.56 22.70 30.39 31.69 31.50 30.20 30.21 30.85 29.39 28.41 27.31 27.63 28.52 29.21 29.27 28.84 28.60 28.56 28.70 28.78 28.70 28.94 28.43 27.79 27.99 28.49 28.81 28.41 28.02 27.28 27.43 27.35
36.94 33.31 24.54 30.58 33.43 35.25 33.17 31.28 31.78 26.98 23.49 24.83 24.76 25.54 34.64 34.18 32.70 31.95 31.60 32.15 29.85 29.57 27.58 27.09 27.86 28.13 28.10 28.34 28.28 27.90 28.25 27.94 28.25 28.47 28.14 28.09 28.43 27.31 26.56 26.69 27.41 27.60 26.55 27.20
36.79 29.82 17.56 22.74 27.87 31.77 29.71 31.15 31.13 30.17 26.85 18.76 20.00 22.72 32.23 32.12 31.28 32.22 31.16 30.37 29.57 28.00 27.35 27.00 26.35 26.62 27.07 27.29 27.33 27.27 27.20 27.37 27.89 27.42 26.69 26.85 26.85 26.37 26.10 26.04 26.81 27.28 27.57 27.11
38.03 27.43 24.67 25.15 24.47 27.80 24.81 29.24 29.51 27.06 19.74 20.51 22.91 23.76 27.65 30.31 29.10 28.19 25.87 26.49 24.84 25.09 26.16 25.58 26.03 26.08 25.92 26.23 25.46 25.55 26.15 26.78 26.78 26.50 25.80 25.46 25.61 26.06 26.43 27.12 26.97 27.35 27.27 26.42
33.59 23.05 26.65 27.07 28.94 28.43 27.13 26.91 27.04 24.58 24.39 20.76 24.20 23.95 28.24 24.47 25.41 25.61 22.96 23.73 24.29 24.72 23.99 24.35 25.24 24.91 25.13 25.24 24.98 25.39 25.48 25.33 25.37 24.93 24.81 24.97 25.67 26.25 26.02 25.78 26.17 26.72 27.05 27.22
28.52 19.25 21.12 15.51 25.08 25.15 22.87 25.30 26.01 26.43 26.29 23.48 24.91 22.97 28.24 21.85 21.64 20.67 22.57 23.64 24.23 23.68 24.59 26.08 26.14 25.50 25.56 25.02 24.92 25.69 24.58 23.81 24.21 23.49 23.71 24.24 23.93 24.00 23.71 23.71 23.05 22.25 22.40 21.99
25.76 20.36 13.95 9.50 17.73 16.26 10.71 16.49 22.84 23.06 23.55 23.46 19.15 22.96 21.59 20.59 22.39 21.41 21.82 23.66 23.81 24.25 25.26 25.47 25.13 24.96 25.63 24.77 24.71 22.00 21.84 22.14 21.37 21.56 21.62 21.39 21.19 20.45 19.94 19.05 18.28 17.42 16.67 16.73
21.42 15.46 10.35 3.41 4.47 -0.47 18.39 20.41 21.48 21.85 20.45 21.85 20.39 18.58 20.85 22.37 22.18 22.98 23.33 23.55 24.45 24.83 25.03 25.04 24.15 23.52 24.12 23.34 21.52 20.48 20.83 19.68 19.57 18.93 18.38 18.56 17.84 16.44 15.85 14.61 13.71 13.34 13.03 11.86
25.60 21.64 9.15 6.33 -3.17 10.87 19.59 20.89 18.48 18.16 15.24 18.59 19.86 20.96 22.05 22.25 21.24 19.96 23.96 24.29 24.14 24.01 25.09 24.64 23.56 23.04 20.51 19.55 18.96 18.47 17.69 17.53 16.64 15.61 15.63 15.35 14.00 11.52 11.29 9.16 9.21 9.25 7.96 7.15
23.46 24.78 13.93 -4.94 -3.03 -1.18 9.73 17.04 20.17 18.66 9.22 14.02 14.65 15.84 17.86 20.62 12.50 18.02 23.16 24.46 24.98 25.02 24.23 21.89 20.16 20.49 19.13 17.86 17.52 15.61 14.67 13.77 12.70 13.42 12.68 12.21 11.11 8.56 6.90 6.91 5.57 5.94 5.28 5.86
6.81 10.60 16.13 4.21 -2.99 5.26 17.02 20.38 22.20 7.75 11.33 17.46 20.26 18.58 16.94 16.53 19.50 22.53 24.36 23.89 24.54 23.24 21.25 19.69 18.45 17.41 16.67 16.43 14.90 12.31 11.92 10.57 11.80 10.93 10.03 8.99 7.89 5.55 4.67 4.16 4.23 3.14 2.60 3.68
9.49 7.74 7.28 8.12 8.66 1.90 20.92 19.45 15.17 20.04 22.48 23.86 22.06 21.67 21.65 22.83 24.20 23.86 23.82 23.01 20.86 19.68 18.59 18.20 15.62 14.93 14.89 14.49 11.96 9.73 8.72 10.67 9.29 8.18 6.24 4.28 2.77 2.64 3.51 1.18 1.49 1.57 1.01 0.32
10.13 13.85 8.72 11.76 10.87 20.34 21.58 20.54 24.84 24.64 23.10 22.98 22.76 23.04 23.16 23.22 22.86 23.61 22.04 19.91 18.92 16.95 17.56 15.52 12.48 11.83 11.97 11.69 10.28 6.71 7.83 7.94 6.51 3.16 1.17 0.47 0.94 1.70 1.82 -0.08 -0.12 -0.08 0.43 0.14
16.77 18.10 13.34 12.56 18.38 20.20 23.07 24.97 24.48 24.62 24.02 24.92 24.69 24.34 22.80 21.71 22.38 21.92 19.99 19.35 17.43 15.49 13.50 12.22 10.03 8.90 8.25 8.50 8.14 6.51 6.17 5.58 0.78 -1.03 -0.35 0.81 0.47 -0.13 0.05 1.15 1.15 -0.10 -0.43 -0.48
18.86 18.16 12.72 13.58 19.55 20.74 22.34 23.64 25.35 24.40 24.65 24.10 23.82 23.46 23.24 22.02 20.12 20.08 17.87 15.80 14.37 12.94 11.37 9.75 8.10 7.28 5.86 5.60 4.47 3.24 3.85 0.88 -0.83 -0.45 0.35 0.14 0.09 -1.06 -0.90 0.28 0.06 1.02 3.14 4.62
21.91 19.59 16.17 14.37 23.01 22.68 23.86 25.46 25.67 24.02 23.25 23.99 23.00 20.34 20.98 21.10 19.36 16.72 14.66 13.74 11.52 9.39 7.99 6.47 5.32 3.38 2.15 1.27 0.85 -0.13 -4.25 -4.28 -3.99 -2.68 -1.07 -0.79 -0.88 -0.68 -0.22 -0.72 -0.58 7.09 9.97 12.08
MSLP
1017.74 1018.40 1018.39 1018.02 1018.05 1018.07 1018.30 1018.41 1018.24 1017.44 1016.61 1016.75 1016.53 1016.68 1016.51 1016.08 1016.50 1017.90 1019.42 1020.39 1021.44 1022.00 1022.36 1021.91 1021.46 1021.26 1020.92 1020.33 1019.90 1019.85 1019.52 1019.60 1019.12 1018.95 1019.24 1019.37 1019.80 1019.82 1019.90 1019.80 1019.67 1019.49 1019.39 1019.44
1018.39 1018.04 1017.46 1017.59 1018.08 1018.33 1018.39 1018.42 1018.14 1017.57 1016.84 1016.97 1016.90 1016.99 1017.46 1017.65 1018.19 1018.95 1020.16 1021.33 1022.14 1022.68 1022.71 1022.55 1022.30 1022.19 1021.84 1021.78 1021.59 1021.35 1021.28 1021.04 1020.85 1020.56 1020.52 1020.54 1020.55 1020.82 1020.90 1020.76 1020.63 1020.64 1020.31 1020.06
1017.71 1017.22 1016.95 1017.55 1017.82 1018.16 1018.24 1018.26 1018.09 1017.87 1017.40 1017.17 1017.39 1017.64 1018.00 1019.33 1019.92 1020.71 1021.71 1022.44 1023.04 1023.37 1023.47 1023.28 1023.01 1022.98 1023.10 1022.98 1022.89 1022.68 1022.54 1022.31 1022.25 1021.98 1021.49 1021.24 1021.22 1021.56 1021.73 1021.85 1021.78 1021.58 1021.28 1020.95
1017.47 1016.74 1016.89 1017.21 1017.47 1017.67 1017.97 1017.33 1017.59 1017.90 1018.25 1018.35 1018.12 1019.09 1018.84 1020.21 1021.26 1021.95 1022.77 1023.31 1023.78 1023.91 1024.03 1024.04 1023.90 1023.55 1023.60 1024.04 1023.95 1023.71 1023.60 1023.37 1023.29 1023.12 1023.16 1023.30 1023.60 1023.74 1024.04 1023.81 1023.37 1022.66 1022.15 1021.90
1016.91 1016.60 1016.61 1016.74 1016.68 1016.97 1017.26 1017.15 1017.67 1018.12 1018.73 1019.23 1019.31 1020.02 1019.41 1020.69 1022.03 1023.01 1023.76 1024.01 1024.27 1024.58 1024.61 1024.48 1024.28 1024.39 1024.62 1024.48 1024.62 1024.50 1024.29 1024.21 1024.27 1024.10 1024.19 1024.30 1024.53 1024.64 1024.40 1024.15 1023.89 1023.54 1023.10 1022.83
1016.89 1016.52 1016.44 1016.14 1016.34 1016.64 1017.14 1017.59 1018.37 1019.36 1019.91 1019.99 1019.34 1020.00 1019.63 1020.26 1020.97 1022.96 1023.96 1024.53 1024.70 1024.83 1025.26 1025.33 1025.24 1025.05 1024.90 1024.92 1024.77 1024.80 1024.69 1024.88 1024.81 1024.84 1024.93 1025.06 1025.34 1025.52 1025.12 1024.96 1024.80 1024.67 1024.37 1024.06
1016.93 1016.54 1016.24 1016.12 1016.54 1016.99 1017.35 1018.21 1019.27 1020.52 1021.17 1020.36 1019.95 1020.67 1019.59 1019.86 1020.30 1022.20 1023.74 1024.69 1025.07 1025.30 1025.30 1025.47 1025.82 1025.74 1025.63 1025.56 1025.46 1025.47 1025.26 1025.48 1025.45 1025.35 1025.40 1025.40 1025.77 1025.86 1025.66 1025.64 1025.51 1025.36 1024.77 1024.46
1016.94 1016.60 1016.08 1015.93 1016.06 1016.45 1017.28 1017.75 1018.77 1020.04 1021.55 1021.06 1020.48 1020.64 1020.57 1021.30 1021.58 1022.56 1023.73 1024.63 1025.03 1025.23 1025.57 1025.70 1025.90 1026.18 1026.09 1026.10 1026.29 1026.02 1026.05 1026.18 1026.03 1025.87 1025.78 1025.79 1026.03 1025.84 1025.75 1025.81 1025.80 1025.63 1025.40 1024.97
1016.56 1016.49 1015.92 1015.84 1015.91 1016.38 1017.08 1017.71 1018.04 1019.62 1021.88 1021.96 1020.82 1021.08 1021.85 1022.38 1022.93 1023.71 1024.36 1024.90 1025.32 1025.67 1025.74 1025.93 1026.19 1026.40 1026.46 1026.36 1026.25 1026.28 1026.45 1026.59 1026.59 1026.55 1026.43 1026.33 1026.16 1025.96 1025.86 1025.63 1025.45 1025.52 1025.36 1025.00
1015.76 1016.48 1016.44 1016.23 1016.36 1016.82 1016.87 1017.29 1018.47 1020.01 1021.84 1022.13 1021.27 1021.01 1020.89 1022.21 1022.89 1023.75 1024.36 1024.91 1025.28 1025.70 1025.93 1026.12 1026.25 1026.51 1026.58 1026.57 1026.55 1026.55 1026.64 1026.76 1026.79 1026.74 1026.64 1026.56 1026.43 1026.36 1026.46 1026.48 1026.48 1026.20 1025.70 1025.12
1016.05 1016.80 1017.53 1017.10 1017.08 1017.11 1017.56 1017.70 1018.66 1019.90 1021.16 1021.72 1021.85 1020.33 1019.33 1020.50 1021.83 1022.92 1023.95 1024.35 1024.84 1025.39 1025.77 1025.95 1026.15 1026.38 1026.32 1026.41 1026.46 1026.47 1026.49 1026.56 1026.56 1026.48 1026.42 1026.28 1026.28 1026.26 1026.34 1026.38 1026.35 1026.08 1025.66 1025.13
1016.42 1017.61 1018.50 1018.20 1017.90 1017.89 1017.99 1018.39 1018.92 1020.18 1021.42 1021.86 1021.85 1020.02 1019.48 1020.18 1021.46 1022.62 1023.32 1024.06 1024.69 1025.14 1025.70 1025.85 1026.00 1026.08 1026.24 1026.35 1026.32 1026.40 1026.41 1026.39 1026.23 1026.24 1026.31 1026.20 1026.18 1026.04 1026.05 1025.80 1025.50 1025.11 1024.76 1024.32
1017.09 1018.41 1019.58 1019.76 1019.36 1019.07 1019.07 1019.52 1019.91 1020.65 1021.43 1021.77 1022.24 1020.93 1020.71 1021.14 1022.11 1022.75 1023.50 1024.08 1024.85 1025.31 1025.56 1025.71 1025.95 1026.13 1026.30 1026.27 1026.19 1026.20 1026.20 1026.17 1026.01 1025.98 1025.97 1025.95 1025.86 1025.73 1025.47 1025.16 1024.76 1024.30 1024.02 1023.65
1017.43 1018.78 1019.69 1019.80 1019.42 1019.42 1020.27 1020.56 1020.82 1021.09 1022.17 1022.14 1021.24 1021.08 1021.79 1021.95 1022.53 1023.25 1023.85 1024.26 1024.78 1025.06 1025.51 1025.77 1025.92 1026.10 1026.29 1026.36 1026.44 1026.43 1026.42 1026.25 1026.37 1026.36 1026.44 1026.35 1026.12 1025.82 1025.49 1025.09 1024.64 1024.10 1023.56 1023.10
1018.91 1020.22 1020.99 1021.35 1020.86 1020.65 1020.76 1021.17 1021.40 1021.71 1021.87 1021.98 1020.62 1021.34 1020.29 1021.85 1022.52 1023.13 1023.79 1024.34 1024.79 1025.16 1025.33 1025.63 1025.94 1026.06 1026.19 1026.40 1026.60 1026.68 1026.69 1026.80 1026.82 1026.76 1026.62 1026.42 1026.10 1025.79 1025.43 1024.97 1024.43 1023.83 1023.24 1022.63
1020.45 1021.50 1022.63 1023.47 1023.02 1022.65 1022.03 1021.52 1021.67 1021.68 1021.91 1021.99 1021.76 1021.10 1021.25 1021.83 1022.71 1023.65 1024.06 1024.44 1024.81 1025.06 1025.27 1025.52 1025.68 1025.99 1026.40 1026.77 1027.00 1027.03 1027.14 1027.21 1027.07 1026.96 1026.78 1026.49 1026.16 1025.73 1025.30 1024.86 1024.50 1024.12 1023.55 1023.02
1021.97 1023.24 1024.92 1025.87 1025.36 1024.70 1023.68 1021.27 1021.32 1021.09 1021.03 1021.59 1022.26 1021.37 1021.85 1022.81 1023.15 1023.67 1024.26 1024.47 1024.72 1024.99 1025.20 1025.50 1025.77 1026.21 1026.53 1026.85 1027.08 1027.34 1027.50 1027.50 1027.39 1027.19 1026.96 1026.67 1026.25 1025.77 1025.45 1025.15 1024.62 1024.06 1023.49 1023.01
1022.71 1024.30 1025.70 1027.69 1027.90 1026.29 1021.85 1021.08 1021.08 1021.11 1021.50 1021.69 1022.29 1022.15 1022.30 1022.72 1023.09 1023.57 1023.92 1024.20 1024.57 1024.78 1025.13 1025.52 1026.09 1026.55 1026.79 1027.08 1027.42 1027.68 1027.67 1027.61 1027.48 1027.33 1027.11 1026.82 1026.55 1026.26 1025.88 1025.45 1024.87 1024.19 1023.65 1023.02
1022.95 1024.36 1027.05 1028.82 1028.80 1025.78 1022.14 1021.24 1021.25 1021.47 1021.65 1021.99 1022.41 1022.69 1022.89 1023.30 1023.67 1023.88 1023.65 1023.82 1024.11 1024.54 1024.93 1025.64 1026.25 1026.63 1027.02 1027.36 1027.69 1027.80 1027.77 1027.72 1027.62 1027.42 1027.24 1027.14 1027.09 1026.67 1026.16 1025.63 1025.05 1024.47 1023.78 1023.04
1023.94 1024.47 1026.21 1029.61 1028.92 1026.29 1023.13 1021.45 1020.86 1021.44 1022.17 1021.77 1022.30 1022.87 1023.16 1023.59 1024.09 1023.44 1023.38 1023.65 1023.96 1024.45 1025.09 1025.80 1026.34 1026.74 1027.09 1027.43 1027.63 1027.75 1027.76 1027.80 1027.76 1027.70 1027.60 1027.51 1027.26 1026.88 1026.26 1025.63 1024.97 1024.28 1023.76 1022.71
1025.71 1025.81 1026.24 1027.85 1027.63 1024.89 1022.42 1021.88 1021.60 1022.16 1021.96 1021.46 1022.17 1022.53 1022.97 1023.21 1022.70 1022.65 1022.86 1023.28 1023.70 1024.40 1025.19 1025.88 1026.34 1026.67 1027.04 1027.36 1027.64 1027.76 1027.87 1027.93 1027.93 1027.94 1027.80 1027.59 1027.31 1026.86 1026.24 1025.38 1024.75 1023.94 1023.12 1022.31
1024.37 1025.49 1025.88 1026.40 1026.21 1023.91 1021.27 1021.95 1021.74 1020.49 1020.57 1020.82 1021.43 1021.72 1022.16 1022.08 1022.11 1022.46 1022.80 1023.25 1023.97 1024.68 1025.40 1026.05 1026.59 1026.96 1027.27 1027.48 1027.81 1027.99 1028.05 1027.92 1027.97 1027.87 1027.73 1027.48 1027.16 1026.66 1025.90 1025.17 1024.25 1023.52 1022.58 1021.63
1023.18 1022.06 1022.94 1023.00 1021.89 1020.34 1020.08 1019.45 1019.12 1019.29 1019.75 1020.40 1020.80 1021.01 1021.23 1021.72 1022.03 1022.11 1022.53 1023.25 1024.07 1024.87 1025.54 1026.22 1026.77 1027.08 1027.36 1027.61 1027.90 1028.03 1027.96 1027.94 1027.83 1027.74 1027.42 1026.99 1026.52 1026.01 1025.32 1024.64 1023.75 1022.84 1021.83 1020.86
1021.46 1020.83 1021.20 1021.35 1020.20 1019.60 1019.34 1018.77 1018.76 1018.97 1019.31 1019.43 1019.80 1020.17 1020.81 1021.49 1021.53 1021.95 1022.55 1023.32 1024.12 1024.97 1025.74 1026.50 1027.04 1027.33 1027.66 1027.92 1028.13 1028.27 1028.09 1027.93 1027.81 1027.47 1026.90 1026.31 1025.73 1025.12 1024.56 1024.01 1023.15 1022.21 1021.10 1020.05
1019.23 1019.41 1019.52 1019.47 1018.99 1018.68 1018.63 1018.15 1018.04 1018.36 1018.60 1019.03 1019.36 1019.82 1020.23 1020.80 1021.23 1021.80 1022.69 1023.64 1024.43 1025.24 1026.11 1026.83 1027.28 1027.60 1027.83 1028.01 1028.13 1028.12 1028.02 1027.89 1027.70 1027.22 1026.56 1025.83 1025.19 1024.49 1023.81 1023.23 1022.25 1021.29 1020.14 1019.18
1017.15 1016.87 1017.96 1017.52 1016.91 1016.96 1016.92 1016.75 1017.06 1017.94 1018.17 1018.48 1019.01 1019.56 1019.85 1020.34 1021.06 1022.00 1022.96 1023.80 1024.77 1025.72 1026.58 1027.22 1027.69 1027.98 1028.10 1028.22 1028.16 1028.00 1027.89 1027.77 1027.63 1027.01 1026.21 1025.50 1024.80 1023.89 1023.20 1022.24 1021.10 1019.84 1018.86 1017.47
Wind_Speed
2 4 8 12 12 3 3 4 5 7 8 1 7 5 12 10 5 9 10 12 11 11 8 12 14 15 15 18 19 18 17 15 11 6 4 5 4 4 6 7 8 7 3 2
2 7 14 2 4 6 7 7 7 5 7 3 4 11 7 12 6 11 13 11 10 9 11 13 14 15 16 15 16 17 17 16 12 8 4 4 2 4 3 6 9 11 9 7
9 6 5 7 5 6 4 5 5 7 4 4 2 9 4 5 12 15 13 11 9 10 10 11 13 13 13 15 14 15 15 15 14 13 9 8 6 5 8 10 9 8 11 11
6 7 7 5 6 6 4 7 7 4 3 4 3 4 2 3 8 10 8 7 7 8 8 9 11 12 12 9 9 11 13 13 13 13 11 12 7 6 4 4 5 8 11 11
6 1 3 5 7 7 7 3 3 2 3 2 3 3 5 6 3 5 4 6 6 6 7 9 10 10 9 7 7 7 11 13 11 12 11 8 9 6 4 7 10 11 10 11
6 2 3 6 2 4 5 3 5 5 3 1 6 7 4 6 9 7 6 6 7 7 6 7 6 7 8 7 7 7 9 10 9 9 10 10 10 8 8 8 8 7 6 7
2 4 2 3 4 2 3 5 1 4 2 6 4 2 4 5 11 13 11 7 6 6 6 7 7 7 7 8 8 7 10 11 9 9 9 8 7 6 7 7 6 8 7 6
5 3 8 5 6 7 6 8 7 7 4 5 5 6 2 5 11 12 9 7 6 7 5 6 6 6 7 7 6 6 7 7 8 9 9 8 6 4 3 3 3 4 4 5
7 6 1 2 2 5 5 5 1 6 3 4 5 2 2 6 8 7 7 6 6 6 6 7 6 6 6 5 6 7 7 7 7 7 7 7 7 8 8 9 7 6 5 7
5 1 1 2 2 2 3 4 4 3 2 4 4 5 5 9 11 8 8 8 7 6 7 6 6 6 3 4 4 4 4 4 3 3 2 1 2 3 5 5 7 7 8 9
5 4 3 2 4 7 1 0 3 2 4 5 2 7 1 15 14 14 9 10 9 8 8 7 6 6 6 4 4 4 3 3 3 3 3 3 4 5 5 5 7 7 7 7
4 5 4 6 2 3 1 5 6 5 6 3 2 10 3 12 12 9 8 7 7 6 7 7 7 6 5 5 4 4 4 4 5 5 4 5 6 6 6 7 8 8 8 8
7 1 2 7 4 1 3 3 4 5 3 6 5 7 3 7 7 6 7 7 6 6 6 4 3 4 3 4 4 4 5 6 6 5 5 6 7 7 7 7 7 7 10 10
6 4 8 11 6 5 4 5 4 6 4 3 7 4 6 9 8 6 3 6 7 5 4 4 2 4 4 4 4 5 6 6 7 6 7 7 7 7 8 9 10 12 12 13
3 5 4 3 2 2 4 8 8 6 6 8 8 10 12 4 5 7 7 7 6 4 1 2 3 2 2 3 5 5 5 6 5 6 6 6 7 8 10 12 13 14 15 14
4 2 3 3 5 2 7 8 11 12 11 10 12 20 9 5 7 7 8 7 4 2 4 6 3 2 2 3 3 5 5 6 6 8 9 10 11 12 13 13 12 13 14 14
4 6 4 5 4 5 10 9 19 8 7 9 12 12 4 5 8 9 8 6 5 5 7 6 4 2 3 2 3 5 5 5 5 7 8 10 12 13 11 12 15 17 17 17
6 6 3 4 3 3 5 3 1 10 5 8 1 4 4 4 5 7 7 6 5 8 7 5 5 3 3 1 3 3 4 5 7 8 10 10 11 11 13 16 17 18 16 17
1 5 3 5 5 8 9 7 8 7 8 7 9 3 4 5 5 4 6 5 6 7 6 5 4 3 3 3 1 2 4 5 7 9 9 10 11 13 14 15 17 16 16 17
2 1 6 4 6 11 7 5 2 6 6 7 6 5 7 7 3 6 6 6 6 6 6 6 5 3 4 2 2 4 5 5 7 8 10 11 12 13 15 16 17 16 15 16
4 1 12 5 4 10 7 5 2 7 10 5 7 7 7 6 8 6 5 5 6 6 6 5 4 3 3 2 2 5 6 7 7 8 9 10 11 14 15 16 14 15 16 16
9 10 6 3 5 11 7 6 8 7 3 6 7 7 10 7 7 6 8 7 7 6 5 4 3 2 1 2 2 6 7 8 8 8 10 10 11 10 11 14 14 15 16 16
3 9 9 12 10 5 11 8 13 6 6 6 7 7 9 8 7 9 7 8 7 6 4 3 2 0 1 2 3 6 8 8 9 9 11 11 11 11 11 13 15 13 14 13
6 5 4 4 6 7 12 10 5 8 8 7 7 9 8 9 10 8 6 7 6 5 4 3 1 2 2 0 5 5 8 8 8 10 11 11 11 12 11 10 11 11 12 12
8 7 6 4 6 3 8 10 10 9 9 7 7 9 11 9 7 7 5 5 5 5 4 2 1 2 4 4 5 5 7 6 9 10 11 12 10 11 12 11 12 11 13 15
9 8 5 9 12 9 11 9 11 11 11 12 10 6 6 8 8 7 6 5 4 4 3 2 2 2 4 4 6 5 4 4 7 10 9 10 10 10 10 11 12 23 26 30
Wind_Direction
209 116 202 210 202 169 167 210 228 253 260 277 265 279 260 292 288 110 110 95 83 65 51 47 43 36 34 34 35 32 34 21 28 11 17 29 36 8 23 16 14 15 3 208
77 222 230 193 159 212 242 251 255 284 257 224 294 294 31 23 15 103 108 94 87 83 61 52 47 41 42 42 39 36 35 31 26 24 6 23 35 41 42 23 23 21 8 353
188 215 176 178 220 206 213 206 218 231 303 292 327 295 108 47 69 71 66 76 75 75 70 60 56 51 45 40 36 40 37 38 32 28 29 26 27 20 16 11 9 4 10 15
234 249 202 199 211 169 255 232 212 235 111 232 83 278 44 91 71 65 75 75 79 79 69 64 59 58 54 40 38 44 43 42 38 32 41 48 53 46 8 353 349 4 9 13
241 232 180 185 218 156 222 172 172 160 139 54 319 110 259 132 106 116 100 95 90 79 82 76 71 66 51 47 43 38 51 47 39 44 43 45 41 24 6 13 10 7 7 11
236 278 217 209 131 169 153 102 51 39 90 256 212 158 250 193 179 151 137 128 111 101 81 68 58 59 53 40 50 46 50 46 43 47 47 49 44 20 26 17 18 4 359 357
266 228 263 165 120 34 110 84 338 347 344 226 169 130 252 337 139 145 138 133 115 104 98 88 67 60 60 49 40 37 41 37 29 40 43 40 38 32 33 17 7 360 359 359
168 272 177 195 197 181 188 168 163 204 208 245 274 242 301 46 98 119 130 132 119 107 103 88 85 73 65 61 57 59 55 45 31 26 20 20 21 27 40 24 1 357 348 339
178 261 120 170 171 149 191 186 199 106 41 66 224 42 115 108 101 119 135 136 141 131 117 119 110 109 101 87 70 60 50 40 29 28 20 8 1 2 355 354 0 348 333 331
189 206 46 183 127 64 166 163 70 5 165 261 278 268 199 178 172 173 170 174 168 164 159 151 140 134 122 122 122 116 140 167 187 180 183 191 293 305 297 307 303 312 314 325
130 131 249 140 205 188 128 156 83 131 151 182 242 255 233 177 175 177 191 195 182 177 173 166 162 168 164 154 165 168 169 186 221 236 241 244 257 252 257 245 251 256 267 274
182 143 182 201 342 318 349 202 165 152 227 227 172 261 92 156 165 171 194 188 189 176 180 185 179 178 183 200 213 221 225 229 241 242 239 254 263 256 250 250 250 246 247 251
179 167 62 350 346 45 185 170 126 103 80 203 177 258 96 108 132 194 190 178 156 161 186 190 191 218 241 270 290 302 300 293 287 266 261 286 293 303 299 297 297 298 297 282
104 147 177 222 190 135 158 170 166 131 137 185 223 274 177 172 180 201 131 140 154 145 134 165 176 217 244 273 302 311 305 311 313 331 330 319 313 307 304 301 304 303 293 289
130 186 139 286 136 136 182 171 187 181 179 189 247 222 255 209 229 193 160 150 153 154 133 199 186 225 287 354 351 355 9 13 359 347 335 323 311 310 307 307 306 304 302 297
356 170 101 316 292 232 268 191 191 218 233 243 252 267 269 83 107 132 159 157 153 211 224 180 204 244 18 49 28 11 10 355 351 338 326 323 319 313 312 314 328 324 318 321
126 127 85 263 360 29 303 205 202 200 196 216 225 242 166 164 157 161 166 172 199 227 207 219 223 150 144 70 35 9 349 335 327 317 314 313 313 313 324 320 315 310 306 306
136 104 94 182 30 266 245 305 302 214 178 208 123 213 190 176 160 157 192 183 215 213 219 197 156 163 144 71 53 356 331 319 316 314 313 317 319 314 312 308 305 306 305 305
118 129 109 161 190 302 277 220 170 160 266 196 194 192 194 134 117 244 223 207 233 213 184 145 139 151 154 128 125 331 316 313 314 309 315 320 317 307 305 301 301 302 300 298
169 59 134 107 166 215 247 291 134 102 286 221 152 187 174 144 159 239 208 218 205 156 147 155 160 164 128 110 25 336 320 317 304 316 315 310 308 305 300 300 301 297 293 292
98 58 208 198 225 285 241 221 168 104 242 174 187 192 170 183 201 210 197 199 171 162 152 133 131 119 82 19 18 330 323 303 318 313 305 305 305 302 296 296 296 297 294 292
158 157 197 127 203 270 174 93 176 203 183 180 191 191 194 216 239 233 232 211 167 169 154 128 123 120 66 26 355 321 307 321 314 310 304 299 296 291 291 294 294 292 291 291
232 192 181 183 202 221 195 187 212 174 164 193 188 206 203 216 229 242 221 173 171 168 151 130 108 355 22 28 353 314 312 318 317 308 299 296 291 289 291 294 291 291 289 289
255 152 202 96 229 216 206 230 208 192 208 201 205 211 195 218 228 229 180 178 168 154 145 116 72 307 285 315 312 288 308 318 313 302 301 299 298 297 295 288 286 286 286 287
205 143 165 249 270 246 252 232 232 222 219 228 222 210 219 205 215 192 176 163 170 149 135 128 212 281 284 308 303 298 309 311 307 305 302 300 295 297 296 285 284 280 279 279
202 201 193 231 230 213 238 234 216 216 212 219 217 217 224 195 192 166 178 164 150 145 141 175 199 244 277 288 292 293 278 286 299 304 302 301 299 299 295 294 291 291 293 296